Theta_e
347 355 357 358 362 365 363 361 360 360 359 360 360 363 362 362 362 361 361 361 361 361 360 359 361 360 356 359 361 362 362 362 362 362 362 362 361 360 356 356 362 347 356
350 355 357 360 363 367 366 365 362 361 361 362 363 362 361 360 359 361 362 361 361 361 360 359 361 358 357 359 361 362 361 362 362 362 363 362 361 359 357 358 364 358 360
352 354 356 362 365 367 368 365 364 362 362 362 361 361 360 360 361 361 361 361 361 361 361 360 361 360 360 360 361 362 361 361 361 361 361 355 356 360 359 358 361 360 359
352 352 354 361 364 365 366 364 363 362 361 361 361 361 361 361 361 361 361 361 360 362 361 360 361 360 359 362 363 362 362 358 358 357 352 353 354 361 361 360 358 361 360
351 353 356 361 362 363 363 363 363 362 362 362 362 361 361 362 361 360 360 360 360 362 360 360 360 361 360 361 362 362 359 357 359 359 357 360 356 359 360 360 359 358 360
352 353 358 361 361 361 361 362 362 362 361 360 360 361 361 360 360 360 360 359 359 360 360 360 359 360 359 360 360 359 356 356 361 355 355 357 356 360 359 360 358 359 360
352 353 356 363 361 361 362 363 362 361 361 360 361 360 359 362 359 362 361 359 360 360 360 361 360 358 357 358 358 359 354 355 358 356 357 355 357 361 360 360 360 360 359
350 350 355 362 362 361 361 362 361 361 360 360 359 359 360 360 360 359 361 362 361 361 361 361 360 358 357 357 357 357 354 356 353 353 355 355 362 362 360 361 359 359 359
346 349 352 353 360 361 362 362 362 361 360 360 361 359 359 361 360 359 361 361 361 361 360 360 358 357 356 355 355 355 356 355 353 354 353 353 362 360 360 360 359 359 359
347 348 351 354 356 359 359 363 362 362 362 361 360 359 359 360 360 360 362 361 362 361 360 359 358 356 355 354 354 358 358 355 353 353 353 356 362 359 360 358 360 359 358
348 348 349 352 356 355 356 358 361 361 361 360 360 361 360 361 361 361 360 363 362 361 359 359 358 357 356 356 357 360 358 352 352 353 350 359 362 360 360 359 359 359 358
344 345 348 352 350 356 352 362 363 358 356 359 359 361 364 361 360 358 361 362 361 362 361 358 359 358 358 352 353 358 358 349 349 349 350 359 359 358 359 359 359 358 358
343 347 350 352 354 353 355 358 359 358 358 360 364 362 361 363 360 357 357 356 361 362 358 357 356 355 356 355 354 354 354 355 351 349 350 357 357 358 358 359 358 357 357
345 348 350 353 356 355 359 354 357 356 358 356 357 360 368 357 359 359 356 354 360 358 357 361 354 355 351 355 352 354 351 351 350 354 352 355 358 358 360 360 358 357 356
345 347 350 352 357 357 362 355 355 356 353 354 357 358 364 363 361 359 361 358 359 359 355 358 355 353 353 351 350 350 348 349 350 350 351 357 358 361 359 358 359 357 358
346 347 349 352 357 357 359 359 360 358 355 356 359 359 363 365 360 359 364 361 358 360 355 353 354 353 354 350 350 352 350 352 350 350 354 353 360 361 358 359 357 358 356
348 349 349 351 355 358 358 359 358 357 359 359 358 365 365 370 367 365 363 359 356 360 361 360 356 351 345 349 347 348 347 357 352 356 354 352 355 361 359 360 358 357 354
346 347 349 349 351 354 357 360 356 355 358 359 360 363 365 367 368 366 364 360 359 358 354 360 353 351 357 356 354 356 354 354 356 356 356 353 351 351 360 360 360 355 355
346 347 347 349 347 354 358 359 359 363 357 358 364 364 367 364 365 368 365 363 366 360 353 355 354 358 355 353 352 354 357 353 353 351 355 356 356 353 350 358 359 354 352
347 349 350 348 350 361 356 363 358 362 357 364 361 362 364 368 365 369 364 364 363 360 360 359 359 358 354 353 350 353 356 358 357 356 352 352 355 354 352 354 352 353 355
345 349 350 350 359 354 351 352 354 353 356 361 360 363 364 365 364 366 370 363 361 361 358 360 356 356 359 357 352 353 350 352 352 353 355 353 349 351 355 351 352 356 353
345 350 350 352 359 355 354 357 356 360 361 358 361 366 364 365 366 364 366 361 362 360 363 361 361 353 354 356 351 347 343 351 351 354 355 351 351 349 350 353 352 352 353
347 348 351 357 362 363 366 360 360 364 360 356 361 360 365 366 365 365 364 365 363 364 355 361 362 361 352 354 357 352 343 340 346 351 349 346 354 351 354 353 352 356 358
344 350 352 358 362 363 369 365 370 356 354 356 358 358 360 365 365 365 366 363 365 359 367 360 359 362 360 352 354 352 352 354 338 337 345 346 347 349 349 351 353 354 355
344 347 351 359 365 368 368 370 361 362 357 358 360 364 369 366 365 364 366 367 362 357 363 363 363 363 366 355 352 349 354 352 348 341 334 340 346 349 350 353 347 352 353
344 346 349 357 365 367 368 365 369 369 363 357 356 359 356 358 359 367 365 368 364 360 363 367 365 363 365 360 358 355 349 342 339 338 333 336 339 345 348 353 348 351 349
Wind_Speed
2 8 7 12 13 14 15 15 15 13 13 13 12 12 12 11 10 10 9 10 10 11 9 9 9 10 13 13 13 14 14 15 14 16 16 15 15 12 10 10 15 16 14
11 13 10 13 14 15 15 15 14 14 12 13 11 11 10 10 9 8 9 9 10 11 10 9 12 14 16 14 14 14 13 13 14 15 18 16 14 11 7 12 18 14 13
11 17 14 13 14 15 15 15 15 14 13 12 11 10 8 8 8 8 9 8 9 11 9 10 14 15 15 14 12 13 12 10 11 15 16 15 14 14 13 16 16 14 14
12 15 17 12 14 16 15 15 14 14 12 11 10 9 8 7 7 8 8 9 8 11 11 10 12 15 14 13 12 13 10 6 5 5 6 13 15 15 14 13 13 14 14
10 11 17 14 14 14 15 15 14 13 11 10 9 8 6 7 7 7 7 7 8 10 11 11 11 13 13 13 13 12 7 3 5 8 9 5 14 12 13 13 13 11 11
13 11 16 14 14 14 14 13 13 12 10 9 8 7 6 6 6 7 6 7 9 9 11 11 11 12 12 12 12 9 5 3 10 8 9 12 15 13 12 13 14 13 14
16 15 16 13 13 12 12 12 11 10 9 7 6 6 5 6 5 6 7 7 9 8 11 11 11 10 10 10 9 8 2 5 2 7 11 10 14 11 13 13 13 12 13
19 19 17 14 13 13 12 11 10 10 8 7 5 4 4 4 5 5 7 8 8 9 9 10 10 10 9 9 8 6 2 7 2 6 12 13 12 12 11 12 12 11 11
15 17 15 15 12 12 12 12 11 10 9 9 7 6 3 5 4 5 6 6 9 9 8 8 8 8 8 7 7 6 5 4 7 3 10 10 10 11 12 11 10 10 11
11 17 16 15 13 12 11 11 10 9 8 8 6 6 5 5 5 6 7 8 9 9 8 7 6 5 5 4 5 6 7 6 6 5 10 9 10 10 10 10 11 9 8
5 12 10 15 12 8 12 9 9 8 7 6 8 8 8 5 10 9 9 10 9 9 9 8 7 7 6 7 6 8 9 5 8 3 9 12 9 11 10 10 9 9 9
8 10 6 16 12 13 8 11 9 10 9 9 9 9 5 5 4 7 11 10 8 9 9 8 8 9 11 5 7 9 5 6 5 5 9 11 10 9 9 9 9 7 7
19 12 15 7 7 8 8 8 5 7 5 6 6 6 7 4 7 5 7 7 7 10 8 9 8 6 7 10 8 6 6 2 3 8 12 12 9 10 10 10 9 7 7
15 18 15 14 9 7 4 7 8 7 9 7 9 8 3 4 5 4 4 6 8 5 6 5 5 7 8 3 3 3 3 2 3 6 7 11 9 10 11 12 9 8 6
16 14 15 13 10 10 4 2 4 1 5 5 7 8 3 2 2 3 6 4 2 3 7 6 6 4 4 7 5 4 3 2 3 5 7 15 11 9 10 12 12 10 8
16 15 13 12 13 10 6 6 6 6 8 4 3 6 7 2 4 4 3 1 6 3 7 5 1 4 1 3 3 3 3 5 5 2 9 10 14 10 8 9 10 10 9
16 17 15 14 15 10 11 10 8 6 4 3 4 7 5 5 3 3 2 5 7 8 5 6 4 5 6 6 8 4 7 4 2 3 8 6 12 15 14 11 10 8 9
16 16 16 14 14 14 9 7 8 6 3 3 3 4 8 8 7 4 4 4 6 6 6 3 5 5 4 4 2 4 6 7 5 6 6 6 7 8 13 14 13 12 10
17 16 16 16 18 17 12 9 9 6 5 5 3 4 7 7 6 4 4 4 7 6 5 5 7 5 5 7 9 5 1 6 9 6 7 6 6 9 7 17 16 17 14
17 16 16 14 13 15 12 8 9 4 7 2 4 4 9 2 5 3 5 6 10 4 4 4 4 6 6 2 2 4 3 2 5 4 5 7 6 6 12 12 11 11 15
17 16 16 14 12 10 10 10 9 7 6 4 4 6 1 5 4 3 3 7 8 4 4 5 4 4 3 5 1 2 4 4 8 4 4 5 5 9 12 10 9 4 9
18 17 17 15 13 12 10 10 7 4 5 6 5 5 5 5 4 5 5 8 7 4 5 5 5 5 4 6 2 2 4 1 1 2 8 5 8 7 5 9 12 10 10
19 19 17 16 14 13 12 10 7 4 6 9 6 6 5 7 6 5 4 7 7 5 8 5 5 8 4 3 5 1 1 3 3 3 4 5 10 10 6 7 5 6 9
20 18 18 17 15 15 13 10 9 8 6 3 7 6 7 11 7 8 8 6 6 7 4 7 7 5 3 5 4 5 5 2 2 2 7 3 3 4 7 11 11 5 6
21 19 19 18 16 14 14 13 10 10 6 5 6 8 6 7 8 10 9 8 8 8 6 5 4 6 3 5 2 1 0 2 3 7 2 7 8 9 2 6 7 4 6
20 21 20 19 16 16 14 15 13 11 11 4 8 7 8 9 10 9 10 8 9 8 7 5 5 7 5 5 4 3 3 3 2 5 5 5 4 6 7 6 6 2 9
Wind_Direction
185 147 144 144 138 137 135 134 133 131 131 124 123 117 104 96 92 91 83 79 77 74 72 73 78 94 123 117 111 109 104 104 105 105 104 103 98 99 112 128 139 100 104
162 142 139 140 137 135 136 135 137 130 134 127 124 110 105 102 96 89 77 70 76 81 83 83 92 96 115 114 114 113 111 111 122 122 117 105 102 101 110 97 77 100 107
168 135 141 136 136 134 136 135 135 131 134 128 124 116 111 107 104 90 77 69 69 83 97 93 96 107 108 108 104 104 111 121 129 140 159 114 107 101 92 95 102 110 108
175 141 137 138 139 134 137 137 138 135 137 133 128 121 118 110 102 89 76 67 75 90 101 93 107 102 102 104 104 105 108 128 168 130 353 115 107 106 103 106 112 110 111
140 144 119 142 138 135 136 140 143 144 141 135 130 121 118 109 95 87 82 82 90 97 101 98 102 109 110 103 102 100 107 171 228 168 156 26 104 105 113 121 123 122 106
161 146 129 144 145 143 146 147 148 149 149 145 146 140 136 118 107 97 94 96 107 107 107 106 107 109 113 109 106 107 129 268 290 61 109 75 85 114 105 94 101 102 101
133 137 137 148 147 146 157 157 154 152 155 154 153 152 148 141 119 111 103 103 113 115 119 116 114 113 115 113 114 116 103 294 344 109 77 102 102 109 111 108 106 108 112
177 139 137 150 156 154 163 165 162 159 164 167 168 180 165 164 133 114 116 121 119 130 120 117 117 121 119 115 115 121 189 274 137 126 113 92 110 115 112 113 116 119 117
143 140 152 159 160 167 176 177 174 172 182 189 188 202 189 139 150 143 138 134 131 136 134 125 121 123 128 129 128 138 189 272 289 124 103 107 114 118 121 120 123 126 129
147 141 159 152 162 171 163 173 171 177 187 196 189 202 187 190 180 184 160 150 138 142 139 141 135 135 131 122 129 157 177 205 233 165 97 100 119 122 127 129 128 128 130
134 142 177 151 168 205 160 156 181 181 187 196 186 195 206 211 177 181 146 142 144 155 152 153 156 173 168 150 172 204 197 138 157 172 95 109 119 133 135 133 131 134 138
180 205 235 153 174 183 153 163 200 179 190 203 193 174 212 232 223 89 135 143 155 163 161 164 188 203 206 160 174 205 233 138 140 129 103 122 125 134 138 140 140 144 144
196 183 190 108 232 143 165 164 194 183 183 177 201 195 169 215 217 205 137 163 167 187 180 185 192 232 258 191 147 189 134 224 95 78 118 132 135 140 145 147 143 150 151
192 165 184 171 154 175 179 233 180 190 182 186 175 203 152 212 194 180 204 153 163 174 242 174 156 228 153 282 128 114 131 108 64 104 127 140 150 152 149 142 142 145 156
184 192 180 160 163 198 179 212 289 231 214 164 155 194 217 241 208 217 75 3 295 216 197 197 154 191 231 180 134 219 143 171 139 159 145 157 164 166 166 151 155 156 160
179 185 184 174 172 200 180 202 245 242 196 214 160 150 209 81 205 181 118 175 296 192 229 157 154 155 49 310 205 148 231 290 167 273 144 159 164 175 181 165 158 165 156
181 181 191 188 171 182 196 201 227 203 230 228 149 148 191 232 239 358 137 146 238 231 199 109 139 210 210 212 250 184 247 307 202 214 158 149 171 180 183 174 162 162 167
192 186 193 187 169 186 186 194 221 221 190 214 170 179 199 210 223 216 151 161 220 224 212 175 175 214 218 237 203 220 200 197 217 193 263 157 163 172 191 181 172 171 172
196 183 189 184 185 169 193 208 224 202 234 212 191 159 200 227 220 205 141 175 209 226 191 183 180 212 219 211 213 166 228 174 211 180 179 207 166 179 166 192 185 183 199
186 185 190 179 199 167 170 207 209 193 214 237 223 215 148 223 229 174 168 174 216 191 179 194 210 214 240 54 256 151 199 245 68 160 179 209 162 220 180 170 187 196 202
185 189 188 193 182 176 184 196 213 192 206 199 238 207 140 255 191 199 131 181 216 165 225 165 167 215 301 238 5 137 300 194 187 215 191 209 210 187 154 159 182 187 197
190 185 183 200 175 190 194 200 210 193 204 213 172 176 209 230 203 215 204 219 185 173 162 191 225 247 186 225 212 258 186 189 190 192 175 221 115 28 245 174 143 193 196
190 187 188 193 183 191 214 201 209 244 209 221 131 191 209 216 204 203 233 270 160 262 175 197 215 247 357 213 247 172 148 199 238 155 318 233 134 177 75 302 162 149 151
192 193 190 188 195 193 207 220 206 215 232 205 184 228 195 211 209 202 211 218 176 216 136 178 215 248 194 272 160 228 310 55 240 249 180 201 199 123 122 261 132 104 166
190 188 192 187 192 204 196 227 197 225 231 199 164 188 174 194 229 221 196 201 189 229 188 232 146 240 202 274 267 174 205 268 248 320 333 162 120 264 230 79 359 150 194
190 188 191 185 189 195 194 206 232 209 232 242 192 184 191 200 202 228 200 208 208 215 183 187 211 216 260 318 319 301 220 242 233 220 244 262 166 133 214 162 184 226 100